Location: Rancho Del Sol Observatory
(38.7214°N, 120.6350°W)
Time: 04:04:00
(UTC-08:00)

Tiros 1 - All Passes

Search period start: 22 January 2020 00:00
Search period end: 01 February 2020 00:00
Orbit: 630 x 664 km, 48.4° (Epoch: 21 January)

Date Brightness Start Highest point End Pass type
(mag) Time Alt. Az. Time Alt. Az. Time Alt. Az.
22 Jan - 11:32:26 10° SE 11:33:38 11° SE 11:34:50 10° ESE daylight
22 Jan - 13:10:29 10° SW 13:15:06 65° SE 13:19:48 10° ENE daylight
22 Jan - 14:53:11 10° W 14:57:33 36° NNW 15:01:58 10° NE daylight
22 Jan - 16:36:46 10° NW 16:40:44 25° N 16:44:42 10° ENE daylight
22 Jan - 18:19:18 10° NW 18:23:50 41° NNE 18:28:23 10° E visible
22 Jan - 20:01:30 10° WNW 20:06:10 53° SW 20:10:50 10° SE visible
23 Jan - 11:55:21 10° SSW 11:59:15 27° SE 12:03:11 10° ENE daylight
23 Jan - 13:36:32 10° WSW 13:41:11 64° NNW 13:45:54 10° NE daylight
23 Jan - 15:19:59 10° WNW 15:24:02 27° N 15:28:07 10° NE daylight
23 Jan - 17:03:09 10° NW 17:07:17 28° NNE 17:11:26 10° ENE daylight
23 Jan - 18:45:17 10° NW 18:50:04 71° NNE 18:54:53 10° ESE visible
23 Jan - 20:28:08 10° W 20:31:57 24° SW 20:35:46 10° S visible
24 Jan - 12:20:29 10° SW 12:25:04 60° SE 12:29:43 10° ENE daylight
24 Jan - 14:03:05 10° W 14:07:28 38° NNW 14:11:54 10° NE daylight
24 Jan - 15:46:41 10° NW 15:50:36 25° N 15:54:34 10° ENE daylight
24 Jan - 17:29:15 10° NW 17:33:44 39° NNE 17:38:14 10° E daylight
24 Jan - 19:11:25 10° WNW 19:16:07 57° SW 19:20:49 10° SE visible
25 Jan - 11:05:30 10° S 11:09:14 24° SE 11:13:01 10° E daylight
25 Jan - 12:46:28 10° WSW 12:51:07 68° NNW 12:55:49 10° NE daylight
25 Jan - 14:29:52 10° WNW 14:33:55 28° N 14:38:01 10° NE daylight
25 Jan - 16:13:05 10° NW 16:17:10 28° N 16:21:17 10° ENE daylight
25 Jan - 17:55:15 10° NW 18:00:00 67° NNE 18:04:47 10° ESE visible
25 Jan - 19:37:59 10° WNW 19:41:56 26° SW 19:45:53 10° S visible
26 Jan - 11:30:30 10° SW 11:35:01 55° SE 11:39:38 10° ENE daylight
26 Jan - 13:12:58 10° W 13:17:22 39° NNW 13:21:50 10° NE daylight
26 Jan - 14:56:35 10° WNW 15:00:30 25° N 15:04:26 10° NE daylight
26 Jan - 16:39:12 10° NW 16:43:38 37° NNE 16:48:06 10° E daylight
26 Jan - 18:21:21 10° WNW 18:26:03 62° SW 18:30:47 10° SE visible
26 Jan - 20:06:32 10° WSW 20:07:33 11° SW 20:08:34 10° SW visible
27 Jan - 10:15:39 10° S 10:19:14 22° SE 10:22:50 10° E daylight
27 Jan - 11:56:24 10° WSW 12:01:03 73° NNW 12:05:46 10° NE daylight
27 Jan - 13:39:45 10° WNW 13:43:49 28° NNW 13:47:57 10° NE daylight
27 Jan - 15:23:01 10° NW 15:27:04 27° N 15:31:08 10° ENE daylight
27 Jan - 17:05:12 10° NW 17:09:56 62° NNE 17:14:41 10° ESE daylight
27 Jan - 18:47:50 10° WNW 18:51:54 28° SW 18:55:59 10° SSE visible
28 Jan - 10:40:31 10° SW 10:45:00 50° SE 10:49:32 10° ENE daylight
28 Jan - 12:22:52 10° W 12:27:18 41° NNW 12:31:46 10° NE daylight
28 Jan - 14:06:30 10° WNW 14:10:23 25° N 14:14:18 10° NE daylight
28 Jan - 15:49:10 10° NW 15:53:33 36° NNE 15:57:57 10° E daylight
28 Jan - 17:31:16 10° WNW 17:36:00 67° SW 17:40:45 10° SE daylight
28 Jan - 19:15:49 10° WSW 19:17:32 12° SW 19:19:16 10° SSW visible
29 Jan - 09:25:50 10° S 09:29:13 20° SE 09:32:38 10° E daylight
29 Jan - 11:06:21 10° WSW 11:11:00 78° NNW 11:15:42 10° NE daylight
29 Jan - 12:49:38 10° WNW 12:53:43 29° NNW 12:57:51 10° NE daylight
29 Jan - 14:32:57 10° NW 14:36:57 26° N 14:40:59 10° ENE daylight
29 Jan - 16:15:10 10° NW 16:19:51 59° NNE 16:24:34 10° ESE daylight
29 Jan - 17:57:42 10° WNW 18:01:52 30° SW 18:06:03 10° SSE visible
30 Jan - 09:50:33 10° SSW 09:54:58 46° SE 09:59:26 10° ENE daylight
30 Jan - 11:32:46 10° W 11:37:13 43° NNW 11:41:43 10° NE daylight
30 Jan - 13:16:24 10° WNW 13:20:16 25° N 13:24:11 10° NE daylight
30 Jan - 14:59:07 10° NW 15:03:27 34° NNE 15:07:48 10° E daylight
30 Jan - 16:41:13 10° WNW 16:45:57 73° SW 16:50:43 10° SE daylight
30 Jan - 18:25:20 10° WSW 18:27:32 13° SW 18:29:43 10° SSW visible
31 Jan - 08:36:02 10° S 08:39:13 18° SE 08:42:25 10° E daylight
31 Jan - 10:16:18 10° WSW 10:20:56 83° NW 10:25:38 10° NE daylight
31 Jan - 11:59:31 10° WNW 12:03:38 30° NNW 12:07:46 10° NE daylight
31 Jan - 13:42:53 10° NW 13:46:51 26° N 13:50:50 10° ENE daylight
31 Jan - 15:25:07 10° NW 15:29:46 55° NNE 15:34:28 10° ESE daylight
31 Jan - 17:07:35 10° WNW 17:11:50 33° SW 17:16:06 10° SSE daylight
